Regional Weather Roundup
Issued by NWS Sioux Falls, SD

Home | Current Version | Previous Version | Graphics & Text | Print | Product List | Glossary On
Versions: 1 2 3 4 5 6 7 8 9 10 11 12 13 14 15 16 17 18 19 20 21 22 23 24 25 26 27 28 29 30 31 32 33 34 35 36 37 38 39 40 41 42 43 44 45 46 47 48 49 50
000
ASUS43 KFSD 230110
RWRFSD

WEATHER ROUNDUP FOR SE SOUTH DAKOTA/SW MINNESOTA/NW IOWA
NATIONAL WEATHER SERVICE SIOUX FALLS SD
800 PM CDT FRI SEP 22 2017

NOTE: "FAIR" INDICATES FEW OR NO CLOUDS BELOW 12,000 FEET WITH NO
SIGNIFICANT WEATHER AND OR OBSTRUCTIONS TO VISIBILITY.


SDZ038>040-050-052>070-230200-
SOUTHEAST SOUTH DAKOTA

CITY           SKY/WX    TMP DP  RH WIND       PRES   REMARKS
BROOKINGS      TSTM      75  67  76 SE8       29.74R
CHAMBERLAIN    PTCLDY    65  55  70 NW10      29.81R
HURON          CLOUDY    69  58  67 NW13      29.79R
MADISON        FAIR      75  75 100 S8        29.75R
MITCHELL       CLOUDY    69  62  78 NW7       29.77F
SIOUX FALLS    CLOUDY    86  69  56 S13       29.74R
WINNER         FAIR      62  50  64 N14       29.82R
YANKTON        CLOUDY    84  63  49 NW21G38   29.76R
$$

MNZ071-072-080-081-089-090-097-098-230200-
SOUTHWEST MINNESOTA

CITY           SKY/WX    TMP DP  RH WIND       PRES   REMARKS
FAIRMONT       CLEAR     82  66  58 S13       29.84R
JACKSON        CLEAR     81  64  57 S13G20    29.84R
LUVERNE        MOCLDY    82  64  54 S14G22    29.77R
MARSHALL       CLOUDY    85  70  60 S8        29.74S
MONTEVIDEO     CLOUDY    84  70  61 S10G18    29.69F
PIPESTONE      MOCLDY    82  70  65 S8        29.77S
REDWOOD FALLS  MOCLDY    86  68  54 S17       29.75S
TRACY          CLOUDY    84  70  62 S12G17    29.77R
WORTHINGTON    CLOUDY    83  69  62 S16G24    29.80S
$$

IAZ001>003-012>014-020>022-031-032-NEZ013-014-SDZ071-230200-
NORTHWEST IOWA

CITY           SKY/WX    TMP DP  RH WIND       PRES   REMARKS
CHEROKEE       CLEAR     82  67  61 S10       29.83R
DENISON        CLEAR     82  68  61 S12       29.87R
ESTHERVILLE    CLEAR     80  67  64 S10       29.84R
LE MARS        PTCLDY    84  70  61 SE17G26   29.78R
ORANGE CITY    PTCLDY    86  70  58 S16G23    29.79S
SHELDON        PTCLDY    82  68  61 S15G24    29.78S
SIOUX CITY     PTCLDY    85  70  60 SE15G23   29.78R
SPENCER        CLOUDY    84  66  54 S16       29.83R
STORM LAKE     CLEAR     82  66  57 S15G23    29.86R
$$

ABBREVIATIONS USED IN REMARKS
   TC - TEMPERATURE IN CELSIUS
  WCI - WIND CHILL INDEX
   HX - HEAT INDEX
  VSB - VISIBILITY





USA.gov is the U.S. government's official web portal to all federal, state and local government web resources and services.